Simultaneous Nadir Overpasses (SNOs) Predictions

Prediction of SNOs between LANDSAT-8 and METOP-B Satellite Orbit:

Table of predicted SNOs for the next 14.0 days since TLE Epoch: 11/26/2016
Index Date (LANDSAT-8) Time (LANDSAT-8) Lat,Lon (LANDSAT-8) SZA (LANDSAT-8 ) Date (METOP-B) Time (METOP-B) Lat,Lon (METOP-B) SZA (METOP-B ) Distance(km) Time Diff (sec)
1 11/28/2016 16:41:50 -81.08, 148.84 75.29 11/28/2016 16:41:44 -81.09, 148.98 75.27 2.75 6
2 11/28/2016 17:31:15 81.11, -43.07 104.79 11/28/2016 17:32:23 81.12, -43.05 104.82 0.31 68
3 12/01/2016 11:26:37 81.09, 47.66 105.13 12/01/2016 11:25:26 81.09, 47.83 105.12 3.05 71
4 12/01/2016 12:16:04 -81.08,-144.74 74.87 12/01/2016 12:16:07 -81.09,-144.82 74.88 1.34 3
5 12/04/2016 07:00:52 81.08, 114.00 105.48 12/04/2016 06:59:50 81.07, 113.96 105.45 0.81 62
6 12/04/2016 07:50:18 -81.10, -78.01 74.46 12/04/2016 07:50:29 -81.10, -77.90 74.45 1.96 11
7 12/07/2016 02:35:07 81.07,-179.70 105.77 12/07/2016 02:34:13 81.08,-179.55 105.77 2.67 54
8 12/07/2016 03:24:33 -81.09, -11.69 74.17 12/07/2016 03:24:53 -81.10, -11.75 74.17 1.04 20
9 12/09/2016 22:09:20 81.08,-113.09 106.05 12/09/2016 22:08:35 81.08,-113.09 106.03 0.21 45




NCC Satellite Simultaneous Nadir Overpasses (SNOs) Prediction Service
